TimeCST,TemperatureF,Dew PointF,Humidity,Sea Level PressureIn,VisibilityMPH,Wind Direction,Wind SpeedMPH,Gust SpeedMPH,PrecipitationIn,Events,Conditions,WindDirDegrees,DateUTC
12:55 AM,16.7,12.4,83,30.04,10.0,NNW,6.9,-,N/A,,Clear,340,2012-12-07 06:55:00
1:55 AM,13.5,8.4,80,30.05,10.0,North,6.9,-,N/A,,Clear,10,2012-12-07 07:55:00
2:55 AM,11.8,5.7,76,30.06,10.0,North,6.9,-,N/A,,Clear,350,2012-12-07 08:55:00
3:55 AM,10.8,4.8,77,30.06,10.0,North,6.9,-,N/A,,Clear,360,2012-12-07 09:55:00
4:55 AM,8.4,3.6,81,30.07,10.0,NNW,3.5,-,N/A,,Clear,330,2012-12-07 10:55:00
5:55 AM,8.2,3.4,81,30.07,10.0,NNW,5.8,-,N/A,,Clear,340,2012-12-07 11:55:00
6:55 AM,7.0,2.3,81,30.09,10.0,NW,4.6,-,N/A,,Clear,310,2012-12-07 12:55:00
7:55 AM,5.5,0.9,81,30.11,10.0,NW,4.6,-,N/A,,Clear,320,2012-12-07 13:55:00
8:55 AM,7.9,2.7,79,30.12,10.0,NW,4.6,-,N/A,,Clear,320,2012-12-07 14:55:00
9:55 AM,9.7,4.1,78,30.14,10.0,NNW,3.5,-,N/A,,Clear,340,2012-12-07 15:55:00
10:55 AM,12.2,6.3,77,30.14,10.0,NNE,8.1,-,N/A,,Clear,30,2012-12-07 16:55:00
11:55 AM,13.6,8.2,79,30.13,10.0,NE,5.8,-,N/A,,Overcast,40,2012-12-07 17:55:00
12:55 PM,15.3,9.0,76,30.13,10.0,NE,6.9,-,N/A,,Overcast,40,2012-12-07 18:55:00
1:33 PM,15.8,10.4,79,30.12,10.0,NE,8.1,-,N/A,Snow,Light Snow,40,2012-12-07 19:33:00
1:40 PM,15.8,10.4,79,30.12,10.0,NE,8.1,-,N/A,,Overcast,50,2012-12-07 19:40:00
1:55 PM,16.0,9.1,74,30.12,10.0,NE,8.1,-,0.00,,Overcast,40,2012-12-07 19:55:00
2:55 PM,16.2,8.1,70,30.12,10.0,NNE,6.9,-,N/A,,Overcast,30,2012-12-07 20:55:00
3:55 PM,15.8,7.7,70,30.12,10.0,NNE,6.9,-,N/A,,Overcast,20,2012-12-07 21:55:00
4:21 PM,15.8,8.6,73,30.13,10.0,NE,5.8,-,N/A,,Overcast,40,2012-12-07 22:21:00
4:25 PM,15.8,8.6,73,30.13,10.0,NE,5.8,-,N/A,,Overcast,50,2012-12-07 22:25:00
4:27 PM,15.8,8.6,73,30.13,10.0,ENE,5.8,-,N/A,Snow,Light Snow,60,2012-12-07 22:27:00
4:40 PM,15.8,6.8,68,30.13,10.0,ENE,6.9,-,N/A,,Overcast,60,2012-12-07 22:40:00
4:53 PM,15.8,6.8,68,30.13,10.0,NNE,6.9,-,N/A,,Overcast,30,2012-12-07 22:53:00
4:55 PM,15.1,7.7,73,30.13,10.0,NE,6.9,-,0.00,,Overcast,40,2012-12-07 22:55:00
4:58 PM,15.8,6.8,68,30.13,10.0,NE,6.9,-,N/A,,Overcast,40,2012-12-07 22:58:00
5:01 PM,15.8,8.6,73,30.13,10.0,NE,5.8,-,N/A,Snow,Light Snow,50,2012-12-07 23:01:00
5:11 PM,15.8,8.6,73,30.13,10.0,NNE,4.6,-,N/A,,Overcast,30,2012-12-07 23:11:00
5:21 PM,14.0,6.8,73,30.13,10.0,NNE,6.9,-,N/A,,Overcast,30,2012-12-07 23:21:00
5:55 PM,12.4,6.6,78,30.13,10.0,NE,5.8,-,0.00,,Mostly Cloudy,40,2012-12-07 23:55:00
6:28 PM,10.4,5.0,79,30.14,10.0,NNE,10.4,-,N/A,,Scattered Clouds,30,2012-12-08 00:28:00
6:32 PM,10.4,6.8,85,30.14,10.0,NNE,10.4,-,N/A,,Mostly Cloudy,30,2012-12-08 00:32:00
6:45 PM,12.2,5.0,73,30.14,10.0,NE,10.4,-,N/A,,Mostly Cloudy,40,2012-12-08 00:45:00
6:48 PM,10.4,5.0,79,30.14,10.0,NE,9.2,-,N/A,,Mostly Cloudy,40,2012-12-08 00:48:00
6:55 PM,10.9,5.7,79,30.14,10.0,NE,8.1,-,N/A,,Mostly Cloudy,40,2012-12-08 00:55:00
6:56 PM,10.4,5.0,79,30.14,10.0,NNE,8.1,-,N/A,,Scattered Clouds,30,2012-12-08 00:56:00
7:55 PM,6.6,2.3,82,30.14,10.0,NNE,5.8,-,N/A,,Clear,30,2012-12-08 01:55:00
8:55 PM,4.6,0.3,82,30.14,10.0,NNE,4.6,-,N/A,,Clear,20,2012-12-08 02:55:00
9:55 PM,3.9,-0.4,82,30.13,10.0,NNE,5.8,-,N/A,,Clear,20,2012-12-08 03:55:00
10:55 PM,3.6,-0.8,82,30.12,10.0,North,4.6,-,N/A,,Clear,10,2012-12-08 04:55:00
11:46 PM,6.8,3.2,85,30.12,10.0,NNE,5.8,-,N/A,,Overcast,30,2012-12-08 05:46:00
11:55 PM,7.2,2.7,82,30.12,10.0,NNE,4.6,-,N/A,,Overcast,30,2012-12-08 05:55:00